Weather History for Fort Benning, GA

Change the Weather History Date:

Thursday, October 18, 2012

  Actual Average Record
Temperature  
Mean Temperature 66 °F -  
Max Temperature 77 °F 75 °F 87 °F (2006)
Min Temperature 55 °F 49 °F 32 °F (2001)
Cooling Degree Days 1    
Growing Degree Days 16 (Base 50)    
Moisture  
Dew Point 61 °F    
Average Humidity 92    
Maximum Humidity 100    
Minimum Humidity 64    
Precipitation  
Precipitation 0.02 in - - ()
Sea Level Pressure  
Sea Level Pressure 29.83 in    
Wind  
Wind Speed 3 mph (South)    
Max Wind Speed 18 mph    
Max Gust Speed 24 mph    
Visibility 5 miles    
Events Fog , Rain    
Averages and records for this station are not official NWS values.
T = Trace of Precipitation, MM = Missing Value Source: NWS Daily Summary

Daily Weather History Graph

Daily Weather History Graph

Search for Another Location

Airport:

Trip Planner

Search our weather history database for the weather conditions in past years. The results will help you decide how hot, cold, wet, or windy it might be!

Date:

Astronomy

Oct. 18, 2012 Rise Set
Actual Time 7:46 AM EDT 7:03 PM EDT
Civil Twilight 7:21 AM EDT 7:28 PM EDT
Nautical Twilight 6:52 AM EDT 7:56 PM EDT
Astronomical Twilight 6:24 AM EDT 8:24 PM EDT
Moon 11:15 AM EDT (10/18) 9:48 PM EDT (10/18)
Length of Visible Light 12h 06m
Length of Day
11h 17m
Waxing Crescent, 14% of the Moon is Illuminated
Oct 18
Waxing Crescent
Oct 21
First Quarter
Oct 29
Full
Nov 6
Last Quarter
Nov 13
New

Hourly Weather History & Observations

Time (EDT) Temp. Dew Point Humidity Pressure Visibility Wind Dir Wind Speed Gust Speed Precip Events Conditions
12:55 AM 57.0 °F 55.2 °F 94% 29.83 in 10.0 mi Calm Calm - N/A   Partly Cloudy
1:55 AM 55.6 °F 53.8 °F 94% 29.83 in 10.0 mi SE 3.5 mph - N/A   Clear
2:55 AM 57.2 °F 55.6 °F 94% 29.83 in 10.0 mi South 4.6 mph - N/A   Clear
3:55 AM 55.8 °F 55.2 °F 98% 29.82 in 10.0 mi SSE 3.5 mph - N/A   Clear
4:55 AM 58.5 °F 57.2 °F 96% 29.81 in 10.0 mi Calm Calm - N/A   Scattered Clouds
5:55 AM 60.1 °F 58.8 °F 96% 29.83 in 10.0 mi Calm Calm - N/A   Mostly Cloudy
6:55 AM 61.2 °F 59.7 °F 95% 29.82 in 10.0 mi ESE 3.5 mph - N/A   Mostly Cloudy
7:03 AM 60.8 °F 59.0 °F 94% 29.83 in 10.0 mi South 4.6 mph - N/A   Light Drizzle
7:43 AM 60.8 °F 60.8 °F 100% 29.77 in 9.0 mi SSE 18.4 mph 24.2 mph N/A Rain Light Rain
7:55 AM 61.5 °F 60.6 °F 97% 29.79 in 10.0 mi Variable 5.8 mph - 0.02 in Rain Light Rain
8:03 AM 62.6 °F 60.8 °F 94% 29.82 in 10.0 mi NE 9.2 mph - N/A   Mostly Cloudy
8:06 AM 62.6 °F 60.8 °F 94% 29.82 in 10.0 mi ESE 8.1 mph - N/A   Mostly Cloudy
8:09 AM 62.6 °F 60.8 °F 94% 29.82 in 10.0 mi Variable 5.8 mph - N/A   Mostly Cloudy
8:24 AM 62.6 °F 60.8 °F 94% 29.83 in 10.0 mi Calm Calm - N/A   Overcast
8:55 AM 63.1 °F 62.2 °F 97% 29.82 in 10.0 mi Calm Calm - 0.00 in   Overcast
9:05 AM 64.4 °F 62.6 °F 94% 29.82 in 10.0 mi ESE 5.8 mph - N/A   Overcast
9:55 AM 64.6 °F 63.0 °F 94% 29.82 in 10.0 mi SE 4.6 mph - N/A   Mostly Cloudy
10:23 AM 66.2 °F 62.6 °F 88% 29.84 in 10.0 mi Variable 3.5 mph - N/A   Mostly Cloudy
10:35 AM 66.2 °F 62.6 °F 88% 29.84 in 10.0 mi SE 3.5 mph - N/A   Mostly Cloudy
10:55 AM 68.5 °F 63.3 °F 83% 29.84 in 10.0 mi Calm Calm - N/A   Overcast
11:08 AM 68.0 °F 64.4 °F 88% 29.84 in 10.0 mi Calm Calm - N/A   Overcast
11:40 AM 68.0 °F 64.4 °F 88% 29.84 in 10.0 mi Calm Calm - N/A   Overcast
11:55 AM 68.2 °F 63.7 °F 85% 29.84 in 10.0 mi Calm Calm - N/A   Overcast
12:55 PM 69.8 °F 64.6 °F 83% 29.84 in 10.0 mi SW 3.5 mph - N/A   Overcast
1:21 PM 71.6 °F 64.4 °F 78% 29.84 in 10.0 mi WSW 4.6 mph - N/A   Overcast
1:24 PM 71.6 °F 64.4 °F 78% 29.84 in 10.0 mi WSW 3.5 mph - N/A   Overcast
1:35 PM 71.6 °F 64.4 °F 78% 29.83 in 10.0 mi SSW 4.6 mph - N/A   Overcast
1:51 PM 73.4 °F 64.4 °F 73% 29.82 in 10.0 mi Variable 5.8 mph - N/A   Overcast
1:53 PM 73.4 °F 64.4 °F 73% 29.82 in 10.0 mi SSW 9.2 mph - N/A   Overcast
1:55 PM 73.0 °F 64.9 °F 76% 29.82 in 10.0 mi SW 8.1 mph - N/A   Overcast
1:57 PM 73.4 °F 64.4 °F 73% 29.82 in 10.0 mi SW 6.9 mph - N/A   Overcast
1:58 PM 73.4 °F 64.4 °F 73% 29.82 in 10.0 mi SW 8.1 mph - N/A   Overcast
2:05 PM 73.4 °F 64.4 °F 73% 29.82 in 10.0 mi SW 6.9 mph - N/A   Overcast
2:55 PM 72.5 °F 64.9 °F 77% 29.82 in 10.0 mi WSW 8.1 mph - N/A   Overcast
3:55 PM 73.4 °F 64.9 °F 75% 29.82 in 10.0 mi South 8.1 mph - N/A   Overcast
4:04 PM 73.4 °F 64.4 °F 73% 29.81 in 10.0 mi SSW 9.2 mph - N/A   Scattered Clouds
4:55 PM 77.5 °F 64.4 °F 64% 29.80 in 10.0 mi SW 4.6 mph - N/A   Partly Cloudy
5:55 PM 76.5 °F 64.2 °F 66% 29.80 in 10.0 mi SSW 4.6 mph - N/A   Scattered Clouds
6:55 PM 73.9 °F 64.9 °F 73% 29.80 in 10.0 mi West 4.6 mph - N/A   Scattered Clouds
7:55 PM 65.1 °F 64.2 °F 97% 29.81 in 10.0 mi Calm Calm - N/A   Clear
8:23 PM 64.4 °F 64.4 °F 100% 29.82 in 2.5 mi Calm Calm - N/A   Clear
8:24 PM 64.4 °F 64.4 °F 100% 29.82 in 1.8 mi Calm Calm - N/A   Clear
8:25 PM 64.4 °F 64.4 °F 100% 29.82 in 1.5 mi Calm Calm - N/A   Clear
8:26 PM 64.4 °F 64.4 °F 100% 29.82 in 1.2 mi Calm Calm - N/A   Clear
8:28 PM 64.4 °F 64.4 °F 100% 29.82 in 1.0 mi Calm Calm - N/A   Clear
8:33 PM 64.4 °F 64.4 °F 100% 29.82 in 1.2 mi SSE 4.6 mph - N/A   Clear
8:36 PM 64.4 °F 64.4 °F 100% 29.83 in 1.0 mi SSE 3.5 mph - N/A   Clear
8:39 PM 64.4 °F 64.4 °F 100% 29.83 in 0.8 mi Calm Calm - N/A   Clear
8:41 PM 64.4 °F 64.4 °F 100% 29.83 in 0.5 mi Calm Calm - N/A Fog Fog
8:43 PM 62.6 °F 62.6 °F 100% 29.83 in 0.5 mi Calm Calm - N/A Fog Fog
8:55 PM 63.0 °F 62.8 °F 99% 29.83 in 0.5 mi Calm Calm - N/A Fog Fog
9:06 PM 62.6 °F 62.6 °F 100% 29.83 in 0.2 mi Calm Calm - N/A Fog Fog
9:08 PM 62.6 °F 62.6 °F 100% 29.82 in 1.0 mi South 1.2 mph - N/A   Clear
9:10 PM 62.6 °F 62.6 °F 100% 29.83 in 0.2 mi Calm Calm - N/A Fog Fog
9:12 PM 62.6 °F 60.8 °F 94% 29.83 in 0.2 mi SSE 3.5 mph - N/A Fog Fog
9:14 PM 62.6 °F 60.8 °F 94% 29.83 in 0.5 mi SSE 3.5 mph - N/A Fog Fog
9:16 PM 62.6 °F 60.8 °F 94% 29.83 in 1.0 mi SE 3.5 mph - N/A   Clear
9:33 PM 60.8 °F 60.8 °F 100% 29.83 in 0.5 mi SSE 3.5 mph - N/A Fog Fog
9:38 PM 60.8 °F 60.8 °F 100% 29.84 in 0.5 mi SSE 3.5 mph - N/A Fog Fog
9:39 PM 60.8 °F 60.8 °F 100% 29.84 in 0.2 mi SSE 3.5 mph - N/A Fog Fog
9:48 PM 60.8 °F 60.8 °F 100% 29.84 in 0.2 mi Calm Calm - N/A Fog Fog
9:53 PM 60.8 °F 59.0 °F 94% 29.84 in 0.5 mi Calm Calm - N/A Fog Fog
9:55 PM 60.4 °F 60.3 °F 99% 29.84 in 0.5 mi Calm Calm - N/A Fog Fog
10:01 PM 60.8 °F 60.8 °F 100% 29.84 in 0.5 mi Calm Calm - N/A Fog Fog
10:07 PM 60.8 °F 60.8 °F 100% 29.84 in 0.2 mi Calm Calm - N/A Fog Fog
10:24 PM 60.8 °F 60.8 °F 100% 29.85 in 0.5 mi Calm Calm - N/A Fog Fog
10:36 PM 60.8 °F 60.8 °F 100% 29.85 in 0.2 mi Calm Calm - N/A Fog Fog
10:37 PM 60.8 °F 60.8 °F 100% 29.85 in 0.5 mi Calm Calm - N/A Fog Fog
10:51 PM 60.8 °F 60.8 °F 100% 29.85 in 0.2 mi Calm Calm - N/A Fog Fog
10:55 PM 59.9 °F 59.7 °F 99% 29.85 in 0.2 mi Calm Calm - N/A Fog Fog
11:04 PM 59.0 °F 59.0 °F 100% 29.85 in 0.5 mi Calm Calm - N/A Fog Fog
11:24 PM 57.2 °F 57.2 °F 100% 29.86 in 0.5 mi Calm Calm - N/A Fog Fog
11:27 PM 57.2 °F 57.2 °F 100% 29.86 in 0.2 mi Calm Calm - N/A Fog Fog
11:29 PM 57.2 °F 57.2 °F 100% 29.86 in 0.2 mi Calm Calm - N/A Fog Fog
11:30 PM 57.2 °F 57.2 °F 100% 29.86 in 0.5 mi Calm Calm - N/A Fog Fog
11:37 PM 57.2 °F 57.2 °F 100% 29.86 in 0.5 mi Calm Calm - N/A Fog Fog
11:39 PM 57.2 °F 57.2 °F 100% 29.86 in 0.8 mi Calm Calm - N/A   Scattered Clouds
11:41 PM 57.2 °F 57.2 °F 100% 29.86 in 0.5 mi Calm Calm - N/A Fog Fog
11:48 PM 57.2 °F 55.4 °F 94% 29.86 in 0.2 mi Calm Calm - N/A Fog Fog
11:49 PM 57.2 °F 57.2 °F 100% 29.86 in 0.2 mi Calm Calm - N/A Fog Fog
11:55 PM 57.4 °F 57.0 °F 99% 29.86 in 0.5 mi Calm Calm - N/A Fog Fog
11:59 PM 57.2 °F 55.4 °F 94% 29.86 in 0.8 mi Calm Calm - N/A   Partly Cloudy